Weather History for KINS - December, 2012

Change the Weather History Date:

Monday, December 10, 2012

  Actual Average (KDRA) Record (KDRA)
Temperature  
Mean Temperature 43 °F -  
Max Temperature 58 °F 53 °F 66 °F (2004)
Min Temperature 28 °F 32 °F 21 °F (2013)
Degree Days  
Heating Degree Days 22    
Moisture  
Dew Point 18 °F    
Average Humidity 40    
Maximum Humidity 53    
Minimum Humidity 26    
Precipitation  
Precipitation 0.00 in - - ()
Sea Level Pressure  
Sea Level Pressure 30.21 in    
Wind  
Wind Speed 3 mph (West)    
Max Wind Speed 6 mph    
Max Gust Speed -    
Visibility 10 miles    
Events      
Averages and records for this station are not official NWS values.
T = Trace of Precipitation, MM = Missing Value Source: NWS Daily Summary

Daily Weather History Graph

Daily Weather History Graph

Search for Another Location

Airport or City:

Trip Planner

Search our weather history database for the weather conditions in past years. The results will help you decide how hot, cold, wet, or windy it might be!

Date:

Astronomy

Dec. 10, 2012 Rise Set
Actual Time 6:44 AM PST 4:27 PM PST
Civil Twilight 6:15 AM PST 4:55 PM PST
Nautical Twilight 5:43 AM PST 5:28 PM PST
Astronomical Twilight 5:11 AM PST 5:59 PM PST
Moon 3:35 AM PST (12/10) 2:17 PM PST (12/10)
Length of Visible Light 10h 40m
Length of Day
9h 42m
Waning Crescent, 9% of the Moon is Illuminated
Dec 10
Waning Crescent
Dec 13
New
Dec 19
First Quarter
Dec 28
Full
Jan 4
Last Quarter

Hourly Weather History & Observations

Time (PST) Temp. Windchill Dew Point Humidity Pressure Visibility Wind Dir Wind Speed Gust Speed Precip Events Conditions
12:58 AM 38.7 °F 36.3 °F 14.7 °F 38% 30.27 in 10.0 mi WSW 3.5 mph - N/A   Clear
1:58 AM 33.6 °F - 14.2 °F 45% 30.28 in 10.0 mi South 2.3 mph - N/A   Clear
2:58 AM 31.8 °F 27.3 °F 13.5 °F 47% 30.27 in 10.0 mi South 4.6 mph - N/A   Clear
3:58 AM 31.3 °F - 13.8 °F 49% 30.27 in 10.0 mi South 2.3 mph - N/A   Clear
4:58 AM 29.8 °F 23.9 °F 12.7 °F 49% 30.27 in 10.0 mi West 5.8 mph - N/A   Clear
5:58 AM 29.8 °F - 13.3 °F 50% 30.27 in 10.0 mi Calm Calm - N/A   Clear
6:58 AM 28.2 °F 24.4 °F 12.9 °F 53% 30.27 in 10.0 mi WSW 3.5 mph - N/A   Clear
7:58 AM 32.4 °F - 14.7 °F 48% 30.28 in 10.0 mi North 2.3 mph - N/A   Clear
8:58 AM 38.7 °F - 15.3 °F 39% 30.28 in 10.0 mi North 2.3 mph - N/A   Clear
9:58 AM 43.3 °F - 15.3 °F 32% 30.28 in 10.0 mi NNE 2.3 mph - N/A   Clear
10:58 AM 48.7 °F - 15.6 °F 27% 30.27 in 10.0 mi Variable 2.3 mph - N/A   Clear
11:58 AM 50.5 °F - 17.1 °F 27% 30.22 in 10.0 mi Calm Calm - N/A   Clear
12:58 PM 54.7 °F - 20.7 °F 27% 30.20 in 10.0 mi Calm Calm - N/A   Clear
1:58 PM 56.7 °F - 23.0 °F 27% 30.16 in 10.0 mi West 3.5 mph - N/A   Clear
2:58 PM 58.8 °F - 23.4 °F 26% 30.14 in 10.0 mi Calm Calm - N/A   Clear
3:58 PM 58.6 °F - 23.2 °F 26% 30.13 in 10.0 mi Variable 1.2 mph - N/A   Clear
4:58 PM 51.8 °F - 21.7 °F 31% 30.14 in 10.0 mi Variable 3.5 mph - N/A   Clear
5:58 PM 49.1 °F - 22.6 °F 35% 30.13 in 10.0 mi West 2.3 mph - N/A   Clear
6:58 PM 44.8 °F 42.4 °F 21.7 °F 40% 30.13 in 10.0 mi West 4.6 mph - N/A   Clear
7:58 PM 42.1 °F - 21.6 °F 44% 30.13 in 10.0 mi Variable 2.3 mph - N/A   Clear
8:58 PM 41.7 °F - 21.6 °F 45% 30.14 in 10.0 mi South 2.3 mph - N/A   Clear
9:58 PM 39.4 °F - 21.7 °F 49% 30.15 in 10.0 mi Calm Calm - N/A   Clear
10:58 PM 36.9 °F 33.1 °F 20.8 °F 52% 30.15 in 10.0 mi West 4.6 mph - N/A   Clear
11:58 PM 38.1 °F - 21.2 °F 51% 30.14 in 10.0 mi NW 1.2 mph - N/A   Clear